This is the latest recevied weather packets stored in our database for station/object Wangen. If no packets are shown the sender has not sent any weather packets the latest 10 day(s).
| Time | Temp. | Humidity | Pressure | Rain* | Wind** | Luminosity | Snow |
|---|---|---|---|---|---|---|---|
| 1788597131 | 19.44° C | 88% | 1019.7 hPa | 0 mm | - | - | - |
| 1788595330 | 19.44° C | 87% | 1019.5 hPa | 0 mm | - | - | - |
| 1788593530 | 18.89° C | 89% | 1018.8 hPa | 0 mm | - | - | - |
| 1788591730 | 18.33° C | 90% | 1018.7 hPa | 0 mm | - | - | - |
| 1788589930 | 18.33° C | 91% | 1018.1 hPa | 0 mm | - | - | - |
| 1788588130 | 17.78° C | 91% | 1018.1 hPa | 0 mm | - | - | - |
| 1788586329 | 17.22° C | 90% | 1018.4 hPa | 0 mm | - | - | - |
| 1788584532 | 17.22° C | 89% | 1018 hPa | 0 mm | - | - | - |
| 1788582730 | 17.22° C | 89% | 1017.7 hPa | 0 mm | - | - | - |
| 1788580929 | 17.22° C | 89% | 1017.3 hPa | 0 mm | - | - | - |
| 1788579130 | 16.67° C | 88% | 1016.8 hPa | 0 mm | - | - | - |
| 1788577329 | 17.22° C | 88% | 1016.5 hPa | 0 mm | - | - | - |
| 1788575529 | 17.22° C | 87% | 1015.9 hPa | 0 mm | - | - | - |
| 1788573729 | 17.22° C | 86% | 1015.7 hPa | 0 mm | - | - | - |
| 1788571929 | 17.78° C | 85% | 1015.7 hPa | 0 mm | - | - | - |
| 1788570129 | 18.33° C | 84% | 1015.6 hPa | 0 mm | - | - | - |
| 1788568332 | 17.78° C | 83% | 1015.3 hPa | 0 mm | - | - | - |
| 1788566531 | 18.33° C | 83% | 1015.3 hPa | 0 mm | - | - | - |
| 1788564731 | 18.33° C | 83% | 1015.4 hPa | 0 mm | - | - | - |
| 1788562931 | 18.33° C | 83% | 1015.3 hPa | 0 mm | - | - | - |
| 1788561131 | 18.33° C | 83% | 1015.3 hPa | 0 mm | - | - | - |
| 1788557531 | 19.44° C | 80% | 1015.3 hPa | 0 mm | - | - | - |
| 1788555731 | 19.44° C | 79% | 1015.1 hPa | 0 mm | - | - | - |
| 1788553931 | 20.56° C | 76% | 1015 hPa | 0 mm | - | - | - |
| 1788552130 | 21.67° C | 73% | 1014.7 hPa | 0 mm | - | - | - |
* Rain since midnight (hover to see other rain measurements)
** Current wind speed in m/s (hover to see current wind gust speed)